COSMOS 1275 DEB, 12693

Orbit data source: Space-Track

COSMOS 1275 DEB, 12693 is space debris in LEO originally from a launch on Thu, 04 Jun 1981 UTC launched from the Plesetsk Missile And Space Complex (PKMTR). Debris objects in space refer to the collection of defunct objects orbiting the Earth. Examples of debris include non-operational satellites, rocket bodies, and fragments generated from explosions, collisions, or faulty payload assembly.

Loading next visibility...
COSMOS 1275 DEB details
Identifier
12693, 1981-053AM
Orbit
LEO
Last TLE update20 hours ago
Origin
Flag of CISVMF (CIS)
ManufacturerUnknown
MissionSpacecraft
Bus & MotorUnknown
MassUnknown
Launch date (UTC)
1981-06-04 (44 years ago)
Launch vehicleUnknown
Launch site
Plesetsk Missile And Space Complex (PKMTR)
Object type
Payload
Rocket body
Debris
Shape & HBRUnknown
Radar Cross SectionMedium (>0.1 m² and <1 m²)

Expand to show TLE details & history

TLE from 20 hours ago
0 COSMOS 1275 DEB
1 12693U 81053AM  25024.93578193  .00003664  00000-0  17168-2 0  9990
2 12693  83.1475 331.1833 0047464 143.5138 285.4208 14.19359006915915
Epoch: 2025-01-24T22:27Z
Definitive object data (Epoch: 2025-01-24T22:27:31.558Z)
Latitude67.47966°
Longitude-113.43401°
Altitude830.267 km
Speed7.449 km/s
True Right ascension23h 11m 45s
True Declination67° 21' 32"
Sunlit
Object was in daylight at TLE epoch
Visualization TLE readout
Latitude83.05654°
Longitude-51.87382°
Altitude820.076 km
Speed7.461 km/s
Apparent Right ascension07h 35m 16s
Apparent Declination30° 21' 14"
Sunlit
Object is in daylight
Visualization observer readout
Local Sidereal Time20:12:13
Azimuth8.437° NNE
Elevation-19.208°
Doppler factor1
Orbital elements
Apogee altitude858.788 km
Perigee altitude790.414 km
Semi-major axis7,202.738 km
Eccentricity0.0047464
Inclination83.1475°
RAAN331.1833°
Arg. of periapsis143.5138°
True anomaly284.89566°
Mean anomaly285.4208°
Eccentric anomaly285.15831°
Mean motion3.55056 °/min
BSTAR0.0017168
Orbital period101.39 mins
Loading maneuver chart data...
Loading historical data...
Loading historical data...
Loading historical data...
Loading historical data...
Loading historical data...
Loading historical data...
Loading historical data...

COSMOS 1275 DEB Visibility forecast

Observer location: undefined°, undefined

Span
Click to sort rows by Start time (UTC) header in descending order
Start Az.
Max El. time (UTC)
Max El. Az.
Max El.
End time (UTC)
End Az.
9 mins2025-01-25 20:14:22.798Z152.026° SSE2025-01-25 20:19:22.798Z83.901° E29.872°2025-01-25 20:23:22.798Z28.581° NE
7 mins2025-01-25 21:58:22.798Z240.537° WSW2025-01-25 22:01:22.798Z285.611° WNW24.805°2025-01-25 22:05:22.798Z339.196° N
5 mins2025-01-26 06:53:22.798Z45.13° ENE2025-01-26 06:55:22.798Z71.59° E16.453°2025-01-26 06:58:22.798Z108.148° ESE
8 mins2025-01-26 08:34:22.798Z337.641° N2025-01-26 08:37:22.798Z288.466° WNW38.21°2025-01-26 08:42:22.798Z193.764° SSW
|